Weather in Mikhaylovka

Russia / Astrakhan Oblast     45°55′27″N   47°07′07″E
temp.,
°C
wind,
m/s
gust,
m/s
humid.,
%
clouds,
%
prec.,
mm/h
press.,
hPa
HPBL,
m
27 november, sat
sat2701:00+4ese51055100 0.0 1026359
04:00+3ese5106790 0.0 1024302
07:00+4ese597192 0.0 1023318
10:00+5ese61074100 0.0 1023403
13:00+7ese7971100 0.0 1022503
16:00+6ese6872100 0.0 1022490
19:00+6ese6107085 0.0 1021401
22:00+5ese5973100 0.0 1021325
28 november, sun
sun2801:00+5ese5876100 0.0 1020231
04:00+5se498499 0.0 1019176
07:00+5se4793100 0.0 1019135
10:00+7se4888100 0.0 1019210
13:00+10se587069 0.0 1018573
16:00+10se567485 0.0 1018440
19:00+7ese4786100 0.0 1019165
22:00+7ese4883100 0.0 1019208
29 november, mon
mon2901:00+7se5118581 0.0 1019269
04:00+6ese358684 0.0 101981
07:00+5ese4582100 0.0 101977
10:00+7ese4773100 0.0 1020202
13:00+11se68585 0.0 1019534
16:00+11se6106089 0.0 1018524
19:00+7se6127610 0.0 1018288
22:00+7se715815 0.0 1016333
30 november, tue
tue3001:00+7sse71683100 0.0 1013346
04:00+8se919875 0.0 1009411
07:00+9sse91989100 0.0 1007460
10:00+10ssw41286100 0.0 1007471
13:00+12wsw477195 0.0 1007383
16:00+13wsw1266100 0.0 100624
19:00+12w2273100 0.0 100622
22:00+10sw22845 0.0 100411
1 december, wed
wed101:00+10wsw4482100 0.0 100129
04:00+10sse4787100 0.0 997111
07:00+9w61287100 0.7 1000393
10:00+11wsw7137512 1.3 1000618
13:00+12w12176199 0.0 10011678
16:00+7nw11177697 0.1 1005875
19:00+6nw81560100 0.0 1007853
22:00+4wnw51058100 0.0 1010563